This is the latest recevied weather packets stored in our database for station/object N4ZIQ. If no packets are shown the sender has not sent any weather packets the latest 10 day(s).
| Time | Temp. | Humidity | Pressure | Rain* | Wind** | Luminosity | Snow |
|---|---|---|---|---|---|---|---|
| 1777911352 | 25.56° C | 61% | 1017.5 hPa | 0 mm | - | 411 W/m² | - |
| 1777911045 | 25.56° C | 61% | 1017.4 hPa | 0 mm | - | 1030 W/m² | - |
| 1777910746 | 25.56° C | 62% | 1017.4 hPa | 0 mm | - | 267 W/m² | - |
| 1777910456 | 25° C | 63% | 1017.5 hPa | 0 mm | - | 341 W/m² | - |
| 1777910145 | 24.44° C | 62% | 1017.6 hPa | 0 mm | - | 248 W/m² | - |
| 1777909846 | 25.56° C | 59% | 1017.6 hPa | 0 mm | - | 223 W/m² | - |
| 1777909553 | 26.11° C | 60% | 1017.6 hPa | 0 mm | - | 974 W/m² | - |
| 1777909244 | 25.56° C | 60% | 1017.5 hPa | 0 mm | - | 974 W/m² | - |
| 1777908947 | 25° C | 61% | 1017.5 hPa | 0 mm | - | 304 W/m² | - |
| 1777908651 | 25.56° C | 62% | 1017.6 hPa | 0 mm | - | 865 W/m² | - |
| 1777908343 | 25° C | 58% | 1017.8 hPa | 0 mm | - | 248 W/m² | - |
| 1777908044 | 25.56° C | 58% | 1017.8 hPa | 0 mm | - | 861 W/m² | - |
| 1777907749 | 26.11° C | 57% | 1017.9 hPa | 0 mm | - | 193 W/m² | - |
| 1777907445 | 25.56° C | 59% | 1017.8 hPa | 0 mm | - | 823 W/m² | - |
| 1777907147 | 25.56° C | 57% | 1017.8 hPa | 0 mm | - | 802 W/m² | - |
| 1777906850 | 26.11° C | 59% | 1017.8 hPa | 0 mm | - | 782 W/m² | - |
| 1777906547 | 25.56° C | 60% | 1017.7 hPa | 0 mm | - | 768 W/m² | - |
| 1777906244 | 25.56° C | 62% | 1017.8 hPa | 0 mm | - | 766 W/m² | - |
| 1777905957 | 25.56° C | 60% | 1017.8 hPa | 0 mm | - | 742 W/m² | - |
| 1777905644 | 25.56° C | 62% | 1017.8 hPa | 0 mm | - | 744 W/m² | - |
| 1777905348 | 25° C | 62% | 1017.7 hPa | 0 mm | - | 728 W/m² | - |
| 1777905053 | 25° C | 62% | 1017.7 hPa | 0 mm | - | 700 W/m² | - |
| 1777904746 | 25° C | 63% | 1017.7 hPa | 0 mm | - | 682 W/m² | - |
| 1777904444 | 24.44° C | 64% | 1017.7 hPa | 0 mm | - | 663 W/m² | - |
| 1777904153 | 24.44° C | 66% | 1017.5 hPa | 0 mm | - | 700 W/m² | - |
* Rain latest hour (hover to see other rain measurements)
** Current wind speed in m/s (hover to see current wind gust speed)